FENGYUN 2E (33463 NORAD) Tracking and Keplerian Element Data

This shows tracking and keplerian element data for the satellite.

Feedback or suggestion? Click here.




ElementValue
Catalog33463
NameFENGYUN 2E
Epoch Orbit5667
Epoch Day159.90227657
Epoch Year2024
RAAN60.6585
Inclination7.5651
Eccentricity0.0002153
Argument of Perigee36.1011
Mean Anonmoly216.8109
Mean Motion0.99118135
Decay Rate-4.5E-07
L11 33463U 08066A 24159.90227657 -.00000045 00000+0 00000+0 0 9996
L22 33463 7.5651 60.6585 0002153 36.1011 216.8109 0.99118135 56676



Live tracking and technical data element details for FENGYUN 2E (NORAD 33463). FENGYUN 2E can be tracked NOW for your location showing map with azimuth and elevation plus other details from your city location.







IsCatalogInMostPopularTable: catalog: 33463, numindb: 363
Update: records affected: 1



GetName: 33463 FENGYUN 2E

Hit Count: updated at: Thu, 15 May 2025 19:22:27 GMT